Weather History for Harbor Springs, MI

Change the Weather History Date:

Monday, January 20, 2014

  Actual Average (KPLN) Record (KPLN)
Temperature  
Mean Temperature 6 °F -  
Max Temperature 15 °F 26 °F 39 °F (1993)
Min Temperature -4 °F 4 °F -23 °F (1970)
Degree Days  
Heating Degree Days 60    
Moisture  
Dew Point 0 °F    
Average Humidity 72    
Maximum Humidity 84    
Minimum Humidity 53    
Precipitation  
Precipitation 0.00 in - - ()
Sea Level Pressure  
Sea Level Pressure 29.88 in    
Wind  
Wind Speed 4 mph (North)    
Max Wind Speed 12 mph    
Max Gust Speed 20 mph    
Visibility 9 miles    
Events Snow    
Averages and records for this station are not official NWS values.
T = Trace of Precipitation, MM = Missing Value Source: NWS Daily Summary

Daily Weather History Graph

Daily Weather History Graph

Search for Another Location

Airport:

Trip Planner

Search our weather history database for the weather conditions in past years. The results will help you decide how hot, cold, wet, or windy it might be!

Date:

Astronomy

Jan. 20, 2014 Rise Set
Actual Time 8:12 AM EST 5:29 PM EST
Civil Twilight 7:39 AM EST 6:02 PM EST
Nautical Twilight 7:03 AM EST 6:38 PM EST
Astronomical Twilight 6:28 AM EST 7:13 PM EST
Moon 10:19 PM EST (1/20) 9:57 AM EST (1/20)
Length of Visible Light 10h 22m
Length of Day
9h 17m
Waning Gibbous, 83% of the Moon is Illuminated
Jan 20
Waning Gibbous
Jan 24
Last Quarter
Jan 30
New
Feb 6
First Quarter
Feb 14
Full

Hourly Weather History & Observations

Time (EST) Temp. Windchill Dew Point Humidity Pressure Visibility Wind Dir Wind Speed Gust Speed Precip Events Conditions
12:15 AM 15.1 °F - 9.3 °F 78% 29.57 in 4.0 mi Calm Calm - N/A Snow Light Snow
12:34 AM 14.2 °F - 8.2 °F 77% 29.57 in 4.0 mi Calm Calm - N/A Snow Light Snow
12:55 AM 13.5 °F - 7.7 °F 78% 29.57 in 10.0 mi Calm Calm - N/A   Scattered Clouds
1:14 AM 13.5 °F - 7.7 °F 78% 29.58 in 10.0 mi Calm Calm - N/A Snow Light Snow
1:35 AM 13.5 °F 7.5 °F 7.5 °F 77% 29.58 in 10.0 mi NW 3.5 mph - N/A Snow Light Snow
1:55 AM 13.5 °F 7.5 °F 7.9 °F 78% 29.59 in 10.0 mi NNW 3.5 mph - N/A Snow Light Snow
2:14 AM 13.5 °F - 8.4 °F 80% 29.60 in 10.0 mi Calm Calm - N/A   Overcast
2:35 AM 13.5 °F 5.8 °F 8.6 °F 81% 29.61 in 10.0 mi North 4.6 mph - N/A   Overcast
2:55 AM 13.5 °F 7.5 °F 8.4 °F 80% 29.63 in 7.0 mi North 3.5 mph - N/A Snow Light Snow
3:14 AM 13.5 °F 4.4 °F 8.2 °F 80% 29.65 in 5.0 mi NNW 5.8 mph - N/A Snow Light Snow
3:35 AM 11.5 °F 0.9 °F 5.5 °F 77% 29.65 in 7.0 mi North 6.9 mph - N/A   Overcast
3:55 AM 11.5 °F 5.3 °F 5.7 °F 78% 29.66 in 7.0 mi North 3.5 mph - N/A   Overcast
4:15 AM 11.1 °F - 5.0 °F 76% 29.68 in 10.0 mi Calm Calm - N/A   Overcast
4:35 AM 10.9 °F 4.7 °F 4.8 °F 76% 29.69 in 10.0 mi North 3.5 mph - N/A   Overcast
4:54 AM 10.9 °F 4.7 °F 4.5 °F 75% 29.70 in 10.0 mi NNW 3.5 mph - N/A   Overcast
5:15 AM 10.9 °F 2.9 °F 5.0 °F 77% 29.73 in 10.0 mi NNW 4.6 mph - N/A   Overcast
5:35 AM 9.0 °F -0.9 °F 2.5 °F 75% 29.74 in 10.0 mi North 5.8 mph - N/A   Overcast
5:54 AM 8.8 °F 2.2 °F 2.3 °F 75% 29.75 in 10.0 mi NNE 3.5 mph - N/A   Overcast
6:15 AM 8.6 °F 0.1 °F 2.1 °F 75% 29.76 in 10.0 mi North 4.6 mph - N/A   Overcast
6:35 AM 8.4 °F -2.8 °F 1.9 °F 75% 29.77 in 10.0 mi North 6.9 mph - N/A   Overcast
6:54 AM 8.4 °F -3.9 °F 1.9 °F 75% 29.76 in 10.0 mi NNE 8.1 mph - N/A   Overcast
7:15 AM 8.4 °F -3.9 °F 1.8 °F 74% 29.77 in 10.0 mi North 8.1 mph - N/A   Overcast
7:35 AM 8.4 °F -2.8 °F 1.9 °F 75% 29.78 in 10.0 mi North 6.9 mph - N/A   Overcast
7:54 AM 8.4 °F -0.1 °F 2.3 °F 76% 29.79 in 10.0 mi NNE 4.6 mph - N/A   Overcast
8:15 AM 8.1 °F -3.2 °F 1.8 °F 75% 29.79 in 10.0 mi North 6.9 mph - N/A   Overcast
8:35 AM 6.3 °F -5.4 °F -0.0 °F 75% 29.80 in 5.0 mi NNE 6.9 mph - N/A   Haze
8:54 AM 5.9 °F -7.0 °F -0.4 °F 75% 29.81 in 5.0 mi North 8.1 mph - N/A   Haze
9:15 AM 5.9 °F -8.0 °F -0.4 °F 75% 29.82 in 5.0 mi NNE 9.2 mph - N/A   Haze
9:35 AM 5.9 °F -4.5 °F -0.8 °F 74% 29.84 in 7.0 mi NNE 5.8 mph - N/A   Overcast
9:54 AM 5.9 °F -3.0 °F -0.8 °F 74% 29.86 in 5.0 mi NNE 4.6 mph - N/A   Haze
10:15 AM 5.9 °F -8.0 °F -1.3 °F 72% 29.88 in 5.0 mi North 9.2 mph - N/A   Haze
10:35 AM 5.7 °F -3.2 °F -1.5 °F 72% 29.89 in 4.0 mi North 4.6 mph - N/A   Haze
10:54 AM 5.9 °F - -1.3 °F 72% 29.91 in 7.0 mi Calm Calm - N/A   Overcast
11:15 AM 6.3 °F -2.6 °F -1.8 °F 69% 29.91 in 10.0 mi North 4.6 mph - N/A   Overcast
11:34 AM 8.1 °F -0.5 °F -0.4 °F 68% 29.91 in 10.0 mi NNE 4.6 mph - N/A   Overcast
11:54 AM 7.9 °F -5.5 °F -1.5 °F 66% 29.92 in 10.0 mi North 9.2 mph - N/A   Overcast
12:15 PM 6.4 °F -9.0 °F -3.5 °F 64% 29.92 in 10.0 mi North 11.5 mph - N/A   Overcast
12:34 PM 6.4 °F -8.2 °F -3.6 °F 63% 29.93 in 10.0 mi North 10.4 mph - N/A   Scattered Clouds
12:54 PM 6.6 °F -6.1 °F -4.0 °F 62% 29.93 in 10.0 mi North 8.1 mph - N/A   Clear
1:15 PM 8.4 °F -4.9 °F -3.1 °F 60% 29.93 in 10.0 mi North 9.2 mph - N/A   Mostly Cloudy
1:34 PM 8.4 °F -2.8 °F -3.6 °F 58% 29.93 in 10.0 mi NNE 6.9 mph - N/A   Scattered Clouds
1:55 PM 8.4 °F -1.6 °F -4.0 °F 57% 29.93 in 10.0 mi North 5.8 mph - N/A   Clear
2:15 PM 8.4 °F -3.9 °F -4.7 °F 55% 29.94 in 10.0 mi North 8.1 mph - N/A   Clear
2:34 PM 8.6 °F -2.6 °F -5.3 °F 53% 29.94 in 10.0 mi NNE 6.9 mph - N/A   Clear
2:55 PM 8.4 °F -3.9 °F -5.4 °F 53% 29.95 in 10.0 mi NW 8.1 mph 19.6 mph N/A   Clear
3:15 PM 8.4 °F -2.8 °F -5.3 °F 54% 29.96 in 10.0 mi North 6.9 mph - N/A   Scattered Clouds
3:34 PM 8.4 °F -2.8 °F -4.7 °F 55% 29.97 in 10.0 mi North 6.9 mph - N/A   Clear
3:55 PM 8.4 °F -3.9 °F -4.2 °F 57% 29.98 in 10.0 mi North 8.1 mph - N/A   Scattered Clouds
4:15 PM 8.4 °F -1.6 °F -4.0 °F 57% 29.99 in 10.0 mi NNW 5.8 mph - N/A   Mostly Cloudy
4:34 PM 8.4 °F -1.6 °F -3.1 °F 60% 30.01 in 10.0 mi North 5.8 mph - N/A   Scattered Clouds
4:55 PM 7.5 °F -2.6 °F -3.3 °F 61% 30.01 in 10.0 mi NNW 5.8 mph - N/A   Mostly Cloudy
5:15 PM 7.9 °F 1.2 °F -2.2 °F 64% 30.03 in 10.0 mi NNW 3.5 mph - N/A   Mostly Cloudy
5:34 PM 8.4 °F -3.9 °F -1.5 °F 64% 30.03 in 10.0 mi NNW 8.1 mph - N/A   Overcast
5:55 PM 6.8 °F -2.0 °F -2.4 °F 66% 30.04 in 10.0 mi NNW 4.6 mph - N/A   Overcast
6:15 PM 6.4 °F - -2.2 °F 68% 30.05 in 10.0 mi Calm Calm - N/A   Overcast
6:34 PM 6.3 °F -5.4 °F -2.2 °F 68% 30.06 in 10.0 mi North 6.9 mph - N/A   Mostly Cloudy
6:55 PM 5.9 °F - -2.2 °F 69% 30.07 in 10.0 mi Calm Calm - N/A   Clear
7:15 PM 5.0 °F - -2.4 °F 72% 30.08 in 10.0 mi Calm Calm - N/A   Clear
7:34 PM 3.7 °F - -3.3 °F 73% 30.08 in 10.0 mi Calm Calm - N/A   Clear
7:55 PM 3.4 °F - -4.0 °F 71% 30.08 in 10.0 mi Calm Calm - N/A   Clear
8:15 PM 2.3 °F - -4.2 °F 74% 30.09 in 10.0 mi Calm Calm - N/A   Clear
8:34 PM 1.2 °F - -3.6 °F 80% 30.09 in 10.0 mi Calm Calm - N/A   Scattered Clouds
8:55 PM 0.1 °F - -4.5 °F 81% 30.09 in 10.0 mi Calm Calm - N/A   Clear
9:15 PM -0.6 °F - -4.9 °F 82% 30.09 in 10.0 mi Calm Calm - N/A   Clear
9:34 PM -0.9 °F - -5.4 °F 81% 30.09 in 10.0 mi Calm Calm - N/A   Clear
9:55 PM -2.6 °F - -6.5 °F 83% 30.09 in 10.0 mi Calm Calm - N/A   Clear
10:15 PM -3.6 °F - -7.4 °F 84% 30.09 in 10.0 mi Calm Calm - N/A   Clear
10:34 PM -4.0 °F -12.4 °F -7.8 °F 84% 30.10 in 10.0 mi NE 3.5 mph - N/A   Clear
10:55 PM -2.2 °F -10.4 °F -6.0 °F 84% 30.11 in 10.0 mi ENE 3.5 mph - N/A   Mostly Cloudy
11:15 PM -1.5 °F -11.6 °F -5.4 °F 83% 30.12 in 10.0 mi NE 4.6 mph - N/A   Overcast
11:34 PM -0.6 °F -10.6 °F -4.9 °F 82% 30.12 in 10.0 mi ENE 4.6 mph - N/A   Mostly Cloudy
11:55 PM -0.4 °F -10.4 °F -4.4 °F 83% 30.13 in 10.0 mi NNE 4.6 mph - N/A   Mostly Cloudy